﻿測定場所 (Monitoring sites),日付 (Measurement date),時間 (Measurement time),線量率 最大値 (max) μGy/h,線量率 最小値 (min) μGy/h,線量率 平均値 (average) μGy/h,
足立 (Adachi),2022-10-09,23:01～24:00,0.0445,0.0365,0.0397,
足立 (Adachi),2022-10-09,22:01～23:00,0.0426,0.0342,0.0371,
足立 (Adachi),2022-10-09,21:01～22:00,0.0368,0.0301,0.0331,
足立 (Adachi),2022-10-09,20:01～21:00,0.0331,0.0290,0.0314,
足立 (Adachi),2022-10-09,19:01～20:00,0.0419,0.0308,0.0360,
足立 (Adachi),2022-10-09,18:01～19:00,0.0426,0.0362,0.0394,
足立 (Adachi),2022-10-09,17:01～18:00,0.0428,0.0344,0.0385,
足立 (Adachi),2022-10-09,16:01～17:00,0.0372,0.0273,0.0316,
足立 (Adachi),2022-10-09,15:01～16:00,0.0300,0.0267,0.0282,
足立 (Adachi),2022-10-09,14:01～15:00,0.0297,0.0268,0.0284,
足立 (Adachi),2022-10-09,13:01～14:00,0.0300,0.0265,0.0284,
足立 (Adachi),2022-10-09,12:01～13:00,0.0311,0.0268,0.0287,
足立 (Adachi),2022-10-09,11:01～12:00,0.0307,0.0265,0.0287,
足立 (Adachi),2022-10-09,10:01～11:00,0.0306,0.0272,0.0291,
足立 (Adachi),2022-10-09,09:01～10:00,0.0311,0.0271,0.0291,
足立 (Adachi),2022-10-09,08:01～09:00,0.0316,0.0279,0.0293,
足立 (Adachi),2022-10-09,07:01～08:00,0.0315,0.0271,0.0290,
足立 (Adachi),2022-10-09,06:01～07:00,0.0315,0.0272,0.0292,
足立 (Adachi),2022-10-09,05:01～06:00,0.0315,0.0272,0.0294,
足立 (Adachi),2022-10-09,04:01～05:00,0.0309,0.0280,0.0292,
足立 (Adachi),2022-10-09,03:01～04:00,0.0309,0.0277,0.0291,
足立 (Adachi),2022-10-09,02:01～03:00,0.0307,0.0277,0.0291,
足立 (Adachi),2022-10-09,01:01～02:00,0.0315,0.0274,0.0290,
足立 (Adachi),2022-10-09,00:01～01:00,0.0316,0.0273,0.0289,
足立 (Adachi),2022-10-08,23:01～24:00,0.0306,0.0267,0.0289,
足立 (Adachi),2022-10-08,22:01～23:00,0.0307,0.0260,0.0289,
足立 (Adachi),2022-10-08,21:01～22:00,0.0307,0.0266,0.0287,
足立 (Adachi),2022-10-08,20:01～21:00,0.0307,0.0265,0.0289,
足立 (Adachi),2022-10-08,19:01～20:00,0.0307,0.0273,0.0289,
足立 (Adachi),2022-10-08,18:01～19:00,0.0312,0.0265,0.0289,
足立 (Adachi),2022-10-08,17:01～18:00,0.0301,0.0260,0.0285,
足立 (Adachi),2022-10-08,16:01～17:00,0.0318,0.0272,0.0287,
足立 (Adachi),2022-10-08,15:01～16:00,0.0319,0.0265,0.0285,
足立 (Adachi),2022-10-08,14:01～15:00,0.0300,0.0260,0.0285,
足立 (Adachi),2022-10-08,13:01～14:00,0.0306,0.0267,0.0286,
足立 (Adachi),2022-10-08,12:01～13:00,0.0309,0.0264,0.0289,
足立 (Adachi),2022-10-08,11:01～12:00,0.0312,0.0274,0.0292,
足立 (Adachi),2022-10-08,10:01～11:00,0.0311,0.0274,0.0292,
足立 (Adachi),2022-10-08,09:01～10:00,0.0322,0.0269,0.0293,
足立 (Adachi),2022-10-08,08:01～09:00,0.0309,0.0264,0.0287,
足立 (Adachi),2022-10-08,07:01～08:00,0.0305,0.0269,0.0288,
足立 (Adachi),2022-10-08,06:01～07:00,0.0305,0.0268,0.0289,
足立 (Adachi),2022-10-08,05:01～06:00,0.0321,0.0274,0.0291,
足立 (Adachi),2022-10-08,04:01～05:00,0.0306,0.0273,0.0290,
足立 (Adachi),2022-10-08,03:01～04:00,0.0308,0.0271,0.0288,
足立 (Adachi),2022-10-08,02:01～03:00,0.0316,0.0273,0.0289,
足立 (Adachi),2022-10-08,01:01～02:00,0.0316,0.0277,0.0293,
足立 (Adachi),2022-10-08,00:01～01:00,0.0327,0.0274,0.0301,
足立 (Adachi),2022-10-07,23:01～24:00,0.0380,0.0303,0.0338,
足立 (Adachi),2022-10-07,22:01～23:00,0.0423,0.0344,0.0385,
足立 (Adachi),2022-10-07,21:01～22:00,0.0412,0.0328,0.0362,
足立 (Adachi),2022-10-07,20:01～21:00,0.0350,0.0295,0.0320,
足立 (Adachi),2022-10-07,19:01～20:00,0.0488,0.0332,0.0387,
足立 (Adachi),2022-10-07,18:01～19:00,0.0624,0.0454,0.0536,
足立 (Adachi),2022-10-07,17:01～18:00,0.0646,0.0560,0.0600,
足立 (Adachi),2022-10-07,16:01～17:00,0.0635,0.0534,0.0585,
足立 (Adachi),2022-10-07,15:01～16:00,0.0600,0.0500,0.0543,
足立 (Adachi),2022-10-07,14:01～15:00,0.0604,0.0514,0.0561,
足立 (Adachi),2022-10-07,13:01～14:00,0.0590,0.0503,0.0548,
足立 (Adachi),2022-10-07,12:01～13:00,0.0576,0.0463,0.0508,
足立 (Adachi),2022-10-07,11:01～12:00,0.0503,0.0388,0.0444,
足立 (Adachi),2022-10-07,10:01～11:00,0.0481,0.0394,0.0431,
足立 (Adachi),2022-10-07,09:01～10:00,0.0494,0.0427,0.0465,
足立 (Adachi),2022-10-07,08:01～09:00,0.0473,0.0351,0.0401,
足立 (Adachi),2022-10-07,07:01～08:00,0.0346,0.0275,0.0303,
足立 (Adachi),2022-10-07,06:01～07:00,0.0307,0.0270,0.0290,
足立 (Adachi),2022-10-07,05:01～06:00,0.0314,0.0278,0.0292,
足立 (Adachi),2022-10-07,04:01～05:00,0.0310,0.0272,0.0294,
足立 (Adachi),2022-10-07,03:01～04:00,0.0315,0.0274,0.0292,
足立 (Adachi),2022-10-07,02:01～03:00,0.0322,0.0277,0.0291,
足立 (Adachi),2022-10-07,01:01～02:00,0.0309,0.0271,0.0289,
足立 (Adachi),2022-10-07,00:01～01:00,0.0307,0.0267,0.0289,
足立 (Adachi),2022-10-06,23:01～24:00,0.0313,0.0266,0.0287,
足立 (Adachi),2022-10-06,22:01～23:00,0.0306,0.0269,0.0288,
足立 (Adachi),2022-10-06,21:01～22:00,0.0304,0.0271,0.0287,
足立 (Adachi),2022-10-06,20:01～21:00,0.0310,0.0265,0.0287,
足立 (Adachi),2022-10-06,19:01～20:00,0.0310,0.0269,0.0291,
足立 (Adachi),2022-10-06,18:01～19:00,0.0316,0.0276,0.0297,
足立 (Adachi),2022-10-06,17:01～18:00,0.0371,0.0293,0.0330,
足立 (Adachi),2022-10-06,16:01～17:00,0.0482,0.0355,0.0426,
足立 (Adachi),2022-10-06,15:01～16:00,0.0567,0.0467,0.0519,
足立 (Adachi),2022-10-06,14:01～15:00,0.0559,0.0497,0.0533,
足立 (Adachi),2022-10-06,13:01～14:00,0.0584,0.0468,0.0519,
足立 (Adachi),2022-10-06,12:01～13:00,0.0517,0.0344,0.0424,
足立 (Adachi),2022-10-06,11:01～12:00,0.0475,0.0357,0.0417,
足立 (Adachi),2022-10-06,10:01～11:00,0.0489,0.0426,0.0461,
足立 (Adachi),2022-10-06,09:01～10:00,0.0479,0.0362,0.0419,
足立 (Adachi),2022-10-06,08:01～09:00,0.0457,0.0357,0.0407,
足立 (Adachi),2022-10-06,07:01～08:00,0.0449,0.0319,0.0394,
足立 (Adachi),2022-10-06,06:01～07:00,0.0318,0.0277,0.0297,
足立 (Adachi),2022-10-06,05:01～06:00,0.0333,0.0278,0.0299,
足立 (Adachi),2022-10-06,04:01～05:00,0.0328,0.0291,0.0308,
足立 (Adachi),2022-10-06,03:01～04:00,0.0362,0.0316,0.0334,
足立 (Adachi),2022-10-06,02:01～03:00,0.0345,0.0294,0.0321,
足立 (Adachi),2022-10-06,01:01～02:00,0.0432,0.0318,0.0362,
足立 (Adachi),2022-10-06,00:01～01:00,0.0488,0.0396,0.0436,
足立 (Adachi),2022-10-05,23:01～24:00,0.0489,0.0415,0.0451,
足立 (Adachi),2022-10-05,22:01～23:00,0.0476,0.0352,0.0395,
足立 (Adachi),2022-10-05,21:01～22:00,0.0481,0.0395,0.0437,
足立 (Adachi),2022-10-05,20:01～21:00,0.0460,0.0382,0.0423,
足立 (Adachi),2022-10-05,19:01～20:00,0.0543,0.0418,0.0484,
足立 (Adachi),2022-10-05,18:01～19:00,0.0573,0.0374,0.0502,
足立 (Adachi),2022-10-05,17:01～18:00,0.0392,0.0321,0.0342,
足立 (Adachi),2022-10-05,16:01～17:00,0.0399,0.0318,0.0349,
足立 (Adachi),2022-10-05,15:01～16:00,0.0450,0.0352,0.0406,
足立 (Adachi),2022-10-05,14:01～15:00,0.0405,0.0338,0.0369,
足立 (Adachi),2022-10-05,13:01～14:00,0.0551,0.0378,0.0462,
足立 (Adachi),2022-10-05,12:01～13:00,0.0556,0.0417,0.0487,
足立 (Adachi),2022-10-05,11:01～12:00,0.0547,0.0442,0.0496,
足立 (Adachi),2022-10-05,10:01～11:00,0.0464,0.0298,0.0376,
足立 (Adachi),2022-10-05,09:01～10:00,0.0334,0.0291,0.0313,
足立 (Adachi),2022-10-05,08:01～09:00,0.0344,0.0299,0.0322,
足立 (Adachi),2022-10-05,07:01～08:00,0.0349,0.0299,0.0321,
足立 (Adachi),2022-10-05,06:01～07:00,0.0342,0.0293,0.0321,
足立 (Adachi),2022-10-05,05:01～06:00,0.0348,0.0292,0.0315,
足立 (Adachi),2022-10-05,04:01～05:00,0.0331,0.0289,0.0311,
足立 (Adachi),2022-10-05,03:01～04:00,0.0322,0.0292,0.0306,
足立 (Adachi),2022-10-05,02:01～03:00,0.0324,0.0277,0.0301,
足立 (Adachi),2022-10-05,01:01～02:00,0.0315,0.0269,0.0298,
足立 (Adachi),2022-10-05,00:01～01:00,0.0316,0.0278,0.0297,
足立 (Adachi),2022-10-04,23:01～24:00,0.0325,0.0281,0.0299,
足立 (Adachi),2022-10-04,22:01～23:00,0.0317,0.0273,0.0298,
足立 (Adachi),2022-10-04,21:01～22:00,0.0316,0.0282,0.0298,
足立 (Adachi),2022-10-04,20:01～21:00,0.0314,0.0275,0.0296,
足立 (Adachi),2022-10-04,19:01～20:00,0.0313,0.0281,0.0298,
足立 (Adachi),2022-10-04,18:01～19:00,0.0324,0.0279,0.0295,
足立 (Adachi),2022-10-04,17:01～18:00,0.0312,0.0275,0.0295,
足立 (Adachi),2022-10-04,16:01～17:00,0.0310,0.0274,0.0295,
足立 (Adachi),2022-10-04,15:01～16:00,0.0315,0.0273,0.0294,
足立 (Adachi),2022-10-04,14:01～15:00,0.0317,0.0279,0.0293,
足立 (Adachi),2022-10-04,13:01～14:00,0.0313,0.0277,0.0294,
足立 (Adachi),2022-10-04,12:01～13:00,0.0318,0.0277,0.0294,
足立 (Adachi),2022-10-04,11:01～12:00,0.0317,0.0274,0.0294,
足立 (Adachi),2022-10-04,10:01～11:00,0.0310,0.0281,0.0294,
足立 (Adachi),2022-10-04,09:01～10:00,0.0305,0.0268,0.0290,
足立 (Adachi),2022-10-04,08:01～09:00,0.0317,0.0271,0.0289,
足立 (Adachi),2022-10-04,07:01～08:00,0.0322,0.0274,0.0301,
足立 (Adachi),2022-10-04,06:01～07:00,0.0328,0.0281,0.0302,
足立 (Adachi),2022-10-04,05:01～06:00,0.0315,0.0277,0.0296,
足立 (Adachi),2022-10-04,04:01～05:00,0.0317,0.0266,0.0293,
足立 (Adachi),2022-10-04,03:01～04:00,0.0323,0.0271,0.0299,
足立 (Adachi),2022-10-04,02:01～03:00,0.0313,0.0269,0.0294,
足立 (Adachi),2022-10-04,01:01～02:00,0.0307,0.0274,0.0292,
足立 (Adachi),2022-10-04,00:01～01:00,0.0308,0.0277,0.0295,
足立 (Adachi),2022-10-03,23:01～24:00,0.0312,0.0279,0.0297,
足立 (Adachi),2022-10-03,22:01～23:00,0.0321,0.0281,0.0297,
足立 (Adachi),2022-10-03,21:01～22:00,0.0317,0.0278,0.0294,
足立 (Adachi),2022-10-03,20:01～21:00,0.0315,0.0279,0.0296,
足立 (Adachi),2022-10-03,19:01～20:00,0.0317,0.0273,0.0293,
足立 (Adachi),2022-10-03,18:01～19:00,0.0313,0.0272,0.0292,
足立 (Adachi),2022-10-03,17:01～18:00,0.0311,0.0273,0.0290,
足立 (Adachi),2022-10-03,16:01～17:00,0.0311,0.0275,0.0289,
足立 (Adachi),2022-10-03,15:01～16:00,0.0305,0.0272,0.0291,
足立 (Adachi),2022-10-03,14:01～15:00,0.0314,0.0277,0.0292,
足立 (Adachi),2022-10-03,13:01～14:00,0.0312,0.0269,0.0291,
足立 (Adachi),2022-10-03,12:01～13:00,0.0317,0.0282,0.0298,
足立 (Adachi),2022-10-03,11:01～12:00,0.0323,0.0279,0.0301,
足立 (Adachi),2022-10-03,10:01～11:00,0.0318,0.0280,0.0298,
足立 (Adachi),2022-10-03,09:01～10:00,0.0328,0.0272,0.0300,
足立 (Adachi),2022-10-03,08:01～09:00,0.0329,0.0284,0.0307,
足立 (Adachi),2022-10-03,07:01～08:00,0.0327,0.0284,0.0300,
足立 (Adachi),2022-10-03,06:01～07:00,0.0321,0.0282,0.0301,
足立 (Adachi),2022-10-03,05:01～06:00,0.0324,0.0283,0.0302,
足立 (Adachi),2022-10-03,04:01～05:00,0.0317,0.0287,0.0301,
足立 (Adachi),2022-10-03,03:01～04:00,0.0317,0.0281,0.0299,
足立 (Adachi),2022-10-03,02:01～03:00,0.0316,0.0275,0.0297,
足立 (Adachi),2022-10-03,01:01～02:00,0.0323,0.0279,0.0299,
足立 (Adachi),2022-10-03,00:01～01:00,0.0316,0.0282,0.0299,
